Content
SEND FEEDBACK

Daily
Averages
Monthly
Summary
United States of America

CUMBERLAND, MARYLAND


Home > North America > United States > Maryland
Elevation: 620 feet     Latitude: 39 36N     Longitude: 078 45W

WEATHER
 
SELECT A DAY
Number of Records: 232,105;   Date Range: 11/18/00 - 12/19/14
 
SHARE

PRINT THIS DATA

[ ← Previous Day ]
WEATHER ALMANAC - FEBRUARY 13, 2013
[ Next Day → ]
[ °C ]   °F
Weather ElementAverageHighLow
Temperature33.9 °F41 °F (12:28 pm)28.4 °F (3:46 am)
Dewpoint30.8 °F35.6 °F (3:48 pm)26.6 °F (12:27 am)
Humidity89.2 %100 % (4:47 am)61 % (12:48 pm)
Barometer29.82 in29.97 in (12:27 am)29.69 in (5:09 pm)
Wind Speed1.4 mph8.1 mph (3:48 pm)
Weather ElementAverage
Visibility8.7 mi
Wind DirectionENE (65.1 °)

Weather ElementTotal
Precipitation---
Heating Degree Days30.3 (Base 65)
Averaged from 71 records on February 13, 2013
WEATHER CONDITIONS BREAKOUT
WIND DIRECTION BREAKOUT
WEATHER BY HOUR - FEBRUARY 13, 2013
[ °C ]   °F
Local TimeTemperatureDewpointHumidityBarometerVisibilityWind DirectionWind SpeedGust SpeedPrecipitationEventsConditions
12:27 AM32.0 °F26.6 °F80 %29.97 in10.0 miCalmClear
12:47 AM32.0 °F28.4 °F87 %29.97 in10.0 miNorth (360°)3.5 mphClear
1:07 AM32.0 °F28.4 °F87 %29.96 in10.0 miNorth (350°)3.5 mphClear
1:27 AM32.0 °F28.4 °F87 %29.95 in10.0 miCalmClear
1:47 AM32.0 °F28.4 °F87 %29.93 in10.0 miNNW (330°)5.8 mphClear
2:07 AM30.2 °F26.6 °F86 %29.93 in10.0 miCalmClear
2:27 AM30.2 °F26.6 °F86 %29.93 in10.0 miCalmClear
2:47 AM30.2 °F28.4 °F93 %29.93 in10.0 miNNE (20°)3.5 mphClear
3:07 AM30.2 °F26.6 °F86 %29.92 in10.0 miCalmClear
3:27 AM30.2 °F26.6 °F86 %29.91 in10.0 miCalmClear
3:46 AM28.4 °F26.6 °F93 %29.90 in10.0 miCalmClear
4:07 AM28.4 °F26.6 °F93 %29.90 in10.0 miCalmClear
4:26 AM28.4 °F26.6 °F93 %29.91 in10.0 miCalmClear
4:47 AM28.4 °F28.4 °F100 %29.91 in10.0 miCalmClear
5:07 AM28.4 °F28.4 °F100 %29.91 in10.0 miCalmClear
5:27 AM28.4 °F28.4 °F100 %29.91 in10.0 miCalmClear
5:47 AM30.2 °F28.4 °F93 %29.90 in10.0 miNNE (20°)3.5 mphClear
6:07 AM28.4 °F26.6 °F93 %29.90 in10.0 miCalmClear
6:27 AM28.4 °F26.6 °F93 %29.90 in10.0 miCalmClear
6:47 AM28.4 °F28.4 °F100 %29.87 in10.0 miCalmClear
7:07 AM28.4 °F28.4 °F100 %29.87 in10.0 miCalmClear
7:27 AM28.4 °F26.6 °F93 %29.87 in10.0 miCalmClear
7:47 AM28.4 °F26.6 °F93 %29.87 in10.0 miSSE (160°)3.5 mphClear
8:08 AM28.4 °F28.4 °F100 %29.88 in10.0 miSouth (190°)3.5 mphClear
8:28 AM30.2 °F28.4 °F93 %29.87 in10.0 miCalmClear
8:48 AM32.0 °F30.2 °F93 %29.87 in10.0 miCalmClear
9:08 AM32.0 °F28.4 °F87 %29.86 in10.0 miCalmClear
9:28 AM32.0 °F28.4 °F87 %29.86 in10.0 miCalmClear
9:48 AM32.0 °F30.2 °F93 %29.84 in10.0 miNorth (10°)3.5 mphClear
10:08 AM33.8 °F28.4 °F81 %29.85 in10.0 miCalmClear
10:28 AM35.6 °F28.4 °F75 %29.85 in10.0 miCalmClear
10:48 AM35.6 °F30.2 °F81 %29.84 in10.0 miCalmClear
11:08 AM35.6 °F30.2 °F81 %29.81 in10.0 miCalmClear
11:28 AM37.4 °F30.2 °F75 %29.79 in10.0 miCalmClear
11:48 AM37.4 °F30.2 °F75 %29.81 in10.0 miSW (220°)4.6 mphClear
12:08 PM39.2 °F30.2 °F70 %29.81 in10.0 miSouth (190°)3.5 mphClear
12:28 PM41.0 °F30.2 °F65 %29.79 in10.0 miCalmClear
12:48 PM41.0 °F28.4 °F61 %29.77 in10.0 miCalmClear
1:08 PM41.0 °F28.4 °F61 %29.76 in10.0 miCalmClear
1:28 PM41.0 °F30.2 °F65 %29.75 in10.0 miCalmClear
1:48 PM41.0 °F30.2 °F65 %29.75 in10.0 miSouth (190°)4.6 mphClear
2:08 PM41.0 °F32.0 °F70 %29.73 in10.0 miSouth (180°)6.9 mphScattered Clouds
2:28 PM41.0 °F32.0 °F70 %29.73 in10.0 miSSW (210°)4.6 mphScattered Clouds
2:48 PM41.0 °F32.0 °F70 %29.72 in10.0 miESE (110°)3.5 mphScattered Clouds
3:08 PM41.0 °F32.0 °F70 %29.71 in10.0 miSE (130°)3.5 mphMostly Cloudy
3:28 PM39.2 °F33.8 °F81 %29.71 in10.0 miSSE (150°)5.8 mphOvercast
3:48 PM37.4 °F35.6 °F93 %29.71 in5.0 miSE (130°)8.1 mphOvercast
4:09 PM37.4 °F35.6 °F93 %29.70 in10.0 miSSE (160°)3.5 mphMostly Cloudy
4:29 PM37.4 °F35.6 °F93 %29.70 in7.0 miWSW (250°)3.5 mphOvercast
4:49 PM37.4 °F35.6 °F93 %29.70 in7.0 miCalmOvercast
5:09 PM35.6 °F35.6 °F100 %29.69 in5.0 miNorth (10°)3.5 mphOvercast
5:29 PM35.6 °F35.6 °F100 %29.71 in10.0 miNW (320°)3.5 mphOvercast
5:49 PM35.6 °F35.6 °F100 %29.72 in7.0 miCalmOvercast
6:09 PM35.6 °F35.6 °F100 %29.73 in5.0 miCalmOvercast
6:29 PM35.6 °F35.6 °F100 %29.74 in5.0 miCalmOvercast
6:49 PM35.6 °F35.6 °F100 %29.74 in7.0 miCalmOvercast
7:09 PM35.6 °F35.6 °F100 %29.75 in7.0 miNorth (360°)3.5 mphOvercast
7:29 PM33.8 °F33.8 °F100 %29.75 in7.0 miCalmOvercast
7:49 PM33.8 °F33.8 °F100 %29.77 in7.0 miCalmOvercast
8:09 PM33.8 °F33.8 °F100 %29.77 in5.0 miCalmOvercast
8:29 PM33.8 °F33.8 °F100 %29.78 in5.0 miCalmOvercast
8:49 PM33.8 °F33.8 °F100 %29.78 in5.0 miCalmOvercast
9:09 PM33.8 °F33.8 °F100 %29.78 in5.0 miCalmOvercast
9:29 PM33.8 °F33.8 °F100 %29.79 in5.0 miCalmOvercast
9:49 PM33.8 °F33.8 °F100 %29.79 in4.0 miCalmOvercast
10:09 PM33.8 °F33.8 °F100 %29.81 in4.0 miCalmOvercast
10:29 PM33.8 °F33.8 °F100 %29.81 in5.0 miCalmOvercast
10:49 PM33.8 °F33.8 °F100 %29.81 in7.0 miWest (280°)4.6 mphMostly Cloudy
11:09 PM33.8 °F33.8 °F100 %29.82 in7.0 miWNW (290°)4.6 mphMostly Cloudy
11:29 PM35.6 °F33.8 °F93 %29.83 in10.0 miCalmMostly Cloudy
11:49 PM35.6 °F32.0 °F87 %29.83 in10.0 miCalmOvercast
Hourly data recorded from KCBE, located miles away from Cumberland, Maryland







STORIES FROM OUR PARTNERS